Find ICEYE-X36

NORAD ID: 59103 Int'l Des: 2024-043 Owner: ICEUS Country: US Constellation: iceye operational
LEOCIRCULARRETROGRADESSO

当前视图

正在加载3D地球...

About ICEYE-X36

ICEYE-X36 (NORAD 59103) is a iceye constellation satellite launched Mar 4, 2024 by ICEUS of US. It operates in LEO, CIRCULAR, RETROGRADE, SSO orbit with a mass of 90.00 kg.

关于 ICEYE-X36

正在加载描述...

即将过境

Passes for default location (London). Set your location on the main map for personalized predictions.

高度历史

Loading altitude history...

两行轨道根数

1 59103U 24043F 26195.60537946 .00002719 00000-0 18483-3 0 9990
2 59103 97.8397 334.1727 0005309 216.6874 143.3990 15.07230062129277
Epoch: Jul 14, 2026 • Age: 6 hours

当前状态

高度 569.4 km
远地点 / 近地点 N/A
速度 7.58 km/s
星下点 -75.97°S, 118.29°W
发射日期 Mar 4, 2024
运行时间 2.3 years
类型 earth observation

技术详情

分类 Payload
质量 90.00 kg
干质量 89.00 kg
总质量 90.00 kg
长度 0.70 m
直径 0.50 m
跨度 3.25 m
形状 Box + pan
制造商 ICEUS
平台类型 ICEYE
阶段状态 In Orbit
所有者/国家 ICEUS/US

Most Searched